Date,TemperatureHighF,TemperatureAvgF,TemperatureLowF,DewpointHighF,DewpointAvgF,DewpointLowF,HumidityHigh,HumidityAvg,HumidityLow,PressureMaxIn,PressureMinIn,WindSpeedMaxMPH,WindSpeedAvgMPH,GustSpeedMaxMPH,PrecipitationSumIn
2013-1-6,37.4,30.8,22.3,35.1,26.4,22.0,99,84,62,30.19,29.87,17,8,23,0.00
2013-1-7,43.5,31.7,21.9,31.5,27.2,21.7,99,85,60,30.19,29.96,13,6,19,0.00
2013-1-8,52.5,38.8,28.0,36.0,31.4,26.5,95,76,46,30.01,29.90,8,5,13,0.00
2013-1-9,57.9,42.6,34.0,41.0,35.6,31.6,99,78,40,30.30,29.96,7,4,10,0.00
2013-1-10,55.9,43.1,36.0,55.7,39.6,29.5,99,88,66,30.27,29.60,11,6,15,0.25
2013-1-11,61.5,54.2,48.2,56.2,51.3,47.9,99,90,71,29.68,29.56,16,10,21,0.02
2013-1-12,55.0,50.2,29.5,51.5,41.4,29.2,99,72,58,29.79,29.60,17,8,21,0.20
2013-1-13,29.3,23.8,21.4,29.1,23.1,19.2,99,97,92,29.93,29.73,0,0,0,0.00
2013-1-21,20.3,15.2,10.8,15.4,2.9,-4.4,86,59,40,30.20,30.10,21,11,26,0.00
2013-1-22,16.5,12.4,6.8,8.1,1.2,-2.3,75,61,47,30.29,30.18,10,4,14,0.00
2013-1-23,39.9,25.3,12.6,24.2,16.3,9.5,94,70,48,30.19,29.95,17,5,21,0.00
2013-1-24,26.1,19.2,10.9,11.0,7.0,2.0,80,59,44,30.44,30.09,15,8,24,0.00
2013-1-25,42.4,30.2,24.4,25.1,18.2,9.8,88,62,44,30.08,29.90,15,6,19,0.00
2013-1-26,40.1,27.9,14.9,23.5,15.3,10.4,83,61,30,30.22,30.04,8,4,12,0.00
2013-1-27,37.2,31.9,25.9,37.0,28.9,19.4,99,89,74,30.13,29.80,16,10,24,0.04
2013-1-29,54.0,52.7,51.6,53.7,52.4,51.3,99,99,99,29.35,29.24,4,2,7,0.60
2013-1-30,51.3,31.8,24.1,51.0,27.9,17.6,99,85,72,29.70,29.16,28,14,36,0.12
2013-1-31,29.8,23.8,21.2,20.9,16.3,11.7,83,73,59,29.89,29.70,24,17,29,0.00
2013-2-2,33.6,30.3,27.3,23.8,21.8,20.4,75,71,67,29.95,29.92,12,9,16,0.00
2013-2-7,27.3,27.3,27.3,20.4,20.4,20.4,75,75,75,29.77,29.73,5,5,8,0.01
2013-2-8,34.0,33.1,27.3,33.5,32.4,20.4,99,97,75,30.13,29.77,14,8,18,0.01
2013-2-9,39.4,33.0,28.9,37.3,31.0,27.7,99,92,77,30.18,29.84,12,8,16,0.04
2013-2-10,52.9,46.7,37.6,52.6,45.4,37.3,99,95,68,29.84,29.39,67,14,67,0.35
2013-2-12,42.8,34.5,27.7,32.8,30.0,27.4,99,85,60,29.98,29.76,8,2,10,0.00
2013-2-13,52.2,44.2,31.3,37.3,32.2,-14.2,99,67,10,29.69,29.61,14,8,21,0.19
2013-2-15,38.8,32.1,24.6,31.8,19.1,1.1,93,61,27,30.08,29.88,21,10,27,0.09
2013-2-16,23.9,21.2,18.0,18.0,15.7,13.4,83,79,75,30.06,30.03,12,8,15,0.00
2013-2-17,37.4,37.1,36.7,24.5,24.2,24.0,61,60,58,29.80,29.79,11,10,13,0.00
2013-2-18,55.0,40.3,32.2,50.1,38.7,29.0,99,95,71,29.63,29.35,28,18,37,0.17
2013-2-19,30.4,24.6,19.6,25.8,16.6,12.6,83,72,56,30.10,29.69,25,12,31,12.09
2013-2-20,25.2,19.7,10.6,16.8,10.7,6.0,93,69,52,30.24,30.10,11,4,14,0.00
2013-2-21,31.3,23.7,16.5,31.0,22.9,15.7,99,97,85,30.15,29.64,18,7,27,0.00
2013-2-22,31.8,31.5,31.1,31.6,31.2,30.9,99,99,99,29.84,29.59,0,0,0,0.00
2013-2-23,30.6,30.3,30.0,21.2,21.0,20.7,68,68,68,29.84,29.83,0,0,0,0.00
2013-2-24,30.6,30.6,30.6,21.2,21.2,21.2,68,68,68,29.93,29.83,0,0,0,0.00
2013-2-26,32.2,32.1,30.6,31.9,31.6,21.2,99,98,68,29.88,29.40,11,7,14,0.79
2013-2-27,33.6,31.6,30.4,33.4,31.3,-18.7,99,99,35,29.66,29.43,111,11,111,0.04
2013-2-28,30.9,30.9,30.7,30.7,30.7,30.5,99,99,99,29.69,29.65,9,6,14,0.04
2013-3-1,34.5,29.5,25.3,31.7,28.4,25.1,99,96,82,30.02,29.88,3,0,8,0.02
2013-3-2,33.8,27.0,19.0,24.7,20.5,16.9,99,78,50,30.06,30.00,11,0,20,0.00
2013-3-3,41.0,30.8,14.5,22.2,18.0,13.6,99,62,40,30.02,29.86,3,0,5,0.00
2013-3-6,33.1,24.9,23.9,24.8,23.9,19.1,99,96,56,30.17,29.87,0,0,2,0.01
2013-3-7,49.3,33.1,23.2,32.3,28.0,23.0,99,83,48,30.22,30.12,0,0,3,0.00
2013-3-8,30.6,29.5,29.1,30.1,29.2,28.9,99,99,99,30.22,30.21,0,0,0,0.00
2013-3-9,48.0,40.8,30.6,46.3,38.8,30.3,99,93,87,30.20,29.78,14,8,19,0.17
2013-3-10,55.4,51.8,49.3,53.3,50.6,44.2,99,96,66,29.61,29.43,8,2,14,0.98
2013-4-4,66.4,47.2,27.9,33.7,24.0,9.8,99,50,12,30.08,29.84,0,0,0,0.00
2013-4-5,70.3,52.9,37.9,38.3,32.7,23.7,90,52,19,30.00,29.86,0,0,0,0.00
2013-4-6,71.4,60.9,50.4,49.4,38.4,31.7,69,46,23,29.86,29.51,0,0,0,0.00
2013-4-7,79.2,64.3,45.9,61.4,46.8,30.8,99,59,18,29.76,29.61,0,0,0,0.00
2013-4-8,77.7,67.5,58.5,63.2,60.8,57.9,99,80,57,29.69,29.49,0,0,0,0.06
2013-4-9,77.2,69.8,63.1,64.9,62.1,60.2,92,77,62,29.68,29.63,0,0,0,0.00
2013-4-10,69.6,69.6,69.6,64.9,64.9,64.9,85,85,85,29.60,29.42,0,0,0,0.00
2013-4-11,69.6,69.6,69.6,64.9,64.9,64.9,85,85,85,29.53,29.44,0,0,0,0.00
2013-4-13,59.7,52.8,41.5,43.2,39.3,35.5,79,61,45,29.86,29.75,0,0,0,0.00
2013-4-14,76.8,68.0,46.6,61.4,47.9,42.3,85,52,35,29.65,29.46,0,0,12,0.05
2013-4-27,50.7,48.7,48.0,50.4,48.5,47.8,99,99,99,30.03,30.00,0,0,0,0.00
2013-4-29,78.3,63.9,46.6,65.3,58.2,46.3,99,83,60,29.75,29.59,0,0,24,0.34
2013-4-30,85.1,73.8,61.5,66.3,60.4,54.7,99,67,36,29.77,29.60,0,0,0,0.00
2013-5-1,83.8,72.4,58.8,63.2,57.3,47.2,99,64,30,29.91,29.78,0,0,0,0.00
2013-5-2,68.7,60.1,45.1,63.5,55.4,44.9,99,85,61,29.99,29.88,0,0,0,0.20
2013-5-3,48.2,45.4,43.5,47.9,45.2,43.3,99,99,99,29.90,29.61,0,0,0,1.67
2013-5-4,44.2,43.1,42.4,44.0,42.9,42.2,99,99,99,29.74,29.61,0,0,0,1.74
2013-5-5,62.4,24.1,0.0,59.8,50.6,46.1,99,40,82,29.81,29.21,0,0,24,1.79
2013-5-6,74.5,69.0,56.3,64.1,57.7,54.9,99,68,57,29.31,29.28,24,3,0,1.83
2013-5-11,64.0,60.3,53.8,36.5,32.4,28.5,42,35,28,29.93,29.84,0,0,0,0.47
2013-5-12,56.7,50.7,44.4,42.8,36.7,28.5,94,62,35,30.05,29.97,0,0,0,0.00
2013-5-13,73.0,58.1,40.3,46.4,38.2,25.9,93,55,19,30.04,29.83,0,0,0,0.00
2013-5-14,90.9,72.8,54.1,63.3,54.4,46.8,86,56,27,29.82,29.59,0,0,0,0.00
2013-5-15,90.7,77.3,65.1,70.9,58.9,42.5,99,55,33,29.74,29.61,97,4,0,0.09
2013-5-16,72.0,67.2,63.0,71.7,65.4,54.0,99,94,59,29.76,29.65,0,0,24,0.00
2013-5-17,80.6,75.2,61.9,69.5,65.5,61.4,99,73,62,29.79,29.74,0,0,97,0.00
2013-5-18,80.1,76.1,73.6,68.1,67.3,66.6,81,74,64,29.83,29.74,0,0,0,0.00
2013-5-19,89.6,78.6,67.3,75.4,71.1,66.3,99,80,60,29.72,29.52,0,0,1,0.00
2013-5-20,86.0,72.6,63.0,74.4,66.2,62.3,99,82,50,29.69,29.55,0,0,1,1.20
2013-5-21,81.0,71.2,63.1,71.7,66.4,62.9,99,85,64,29.61,29.50,97,4,97,0.07
2013-5-22,75.0,69.5,63.9,66.3,62.6,54.9,99,80,60,29.67,29.46,0,0,1,0.02
2013-5-23,72.9,64.8,52.0,61.8,59.3,51.5,99,84,66,30.07,29.67,97,0,1,0.02
2013-5-24,71.8,55.1,45.9,51.5,46.3,37.2,99,79,29,30.14,30.07,0,0,0,0.00
2013-5-25,65.5,59.8,54.7,60.0,55.4,50.3,99,86,71,30.16,29.99,0,0,1,0.17
2013-5-26,74.5,64.6,54.1,66.3,58.3,36.0,99,81,35,30.02,29.81,0,0,0,0.70
2013-5-27,79.9,66.8,64.4,73.2,65.9,36.6,99,97,75,29.85,29.54,0,0,0,1.11
2013-5-29,87.6,78.2,64.6,73.2,68.5,64.3,99,74,53,29.77,29.65,0,0,1,0.26
2013-5-30,83.3,75.2,65.3,74.5,70.1,65.0,99,85,70,29.73,29.61,0,0,1,0.30
2013-5-31,79.9,66.6,6.8,77.4,65.0,6.2,99,96,10,29.72,29.52,0,0,2,1.12
2013-6-1,77.9,72.1,63.5,72.9,67.9,60.8,99,87,62,29.69,29.52,0,0,1,0.30
2013-6-2,73.9,66.8,65.7,61.0,59.2,57.6,82,77,64,29.81,29.58,0,0,1,0.30
2013-6-3,75.9,63.4,56.5,57.6,53.7,47.1,99,74,37,29.94,29.83,0,0,0,0.00
2013-6-4,76.8,65.2,53.2,62.5,56.7,52.4,99,77,48,29.93,29.84,0,0,0,0.00
2013-6-5,86.2,70.7,56.5,68.3,60.9,54.2,99,76,34,29.85,29.69,0,0,0,0.00
2013-6-6,77.9,70.1,61.7,66.9,61.4,51.2,99,76,43,29.71,29.65,0,0,0,0.00
2013-6-7,78.3,67.2,57.6,62.5,57.5,52.0,99,74,40,29.74,29.69,0,0,0,0.00
2013-6-8,94.6,75.4,55.2,71.4,59.7,54.4,99,60,40,29.79,29.72,4,0,8,0.51
2013-6-9,65.8,65.8,65.8,59.5,59.5,59.5,80,80,80,29.77,29.61,0,0,0,0.51
2013-6-10,65.8,65.8,65.8,59.5,59.5,59.5,80,80,80,29.73,29.61,0,0,0,0.51
2013-6-11,65.8,65.8,65.8,59.5,59.5,59.5,80,80,80,29.76,29.69,0,0,0,0.51
2013-6-15,74.1,22.9,0.0,65.6,61.3,59.5,78,24,75,29.83,29.79,0,0,1,0.51
2013-6-16,74.1,74.1,74.1,65.7,65.7,65.7,75,75,75,29.82,29.77,0,0,1,0.51
2013-6-19,76.8,74.6,72.3,67.9,67.4,66.9,83,78,74,29.88,29.84,0,0,0,0.00
2013-6-20,117.9,69.1,-5.1,99.9,64.0,-5.3,99,92,79,29.94,29.88,24,4,24,0.00
2013-6-21,92.3,85.8,79.7,75.9,73.9,72.6,81,68,58,29.88,29.81,0,0,1,0.00
2013-6-22,85.6,76.4,68.7,79.2,73.3,68.4,99,91,73,29.93,29.81,0,0,8,0.01
2013-6-23,74.1,72.4,68.4,72.9,69.6,9.6,99,94,10,29.87,29.77,12,0,0,0.24
2013-6-24,79.0,75.2,67.8,77.8,74.0,14.4,99,97,10,29.89,29.73,0,0,1,0.00
2013-6-25,85.8,79.3,77.9,78.0,77.6,75.2,99,95,71,29.78,29.62,0,0,0,0.00
2013-6-26,90.5,80.6,74.7,81.3,77.0,27.1,99,89,70,29.69,29.51,97,0,15,0.01
2013-6-27,93.9,85.1,72.7,79.6,69.8,40.6,99,63,29,29.70,29.55,97,0,1,0.01
2013-6-28,87.8,79.1,-25.1,74.8,61.2,-63.3,99,61,10,29.67,29.51,2,0,1,0.00
2013-6-29,79.0,73.3,0.0,72.1,59.9,55.5,99,63,45,29.56,29.00,0,0,1,0.30
2013-6-30,113.4,65.2,62.4,66.7,64.5,60.0,99,98,88,29.76,29.06,0,0,1,0.05
2013-7-1,80.8,71.0,61.3,61.6,54.9,10.7,83,59,13,29.82,29.75,0,0,1,0.00
2013-7-2,75.7,65.6,62.1,65.7,60.3,5.9,99,84,10,29.87,29.78,55,0,55,0.12
2013-7-3,86.4,71.2,57.4,66.1,62.1,7.2,99,76,43,29.91,29.82,97,1,12,0.00
2013-7-4,88.2,75.2,62.6,70.6,63.6,59.2,99,71,40,29.91,29.83,0,0,1,0.19
2013-7-5,78.6,73.8,64.9,74.4,67.4,7.1,99,84,10,29.91,29.82,0,0,0,0.00
2013-7-6,78.3,78.3,78.3,72.0,72.0,72.0,81,81,81,29.88,29.84,0,0,0,0.00
2013-7-7,92.7,79.5,68.4,74.4,72.0,68.1,99,80,50,29.86,29.81,0,0,0,0.00
2013-7-8,91.8,91.8,91.8,71.7,71.7,71.7,52,52,52,29.93,29.82,0,0,0,0.00
2013-7-9,91.8,91.8,91.8,71.7,71.7,71.7,52,52,52,29.86,29.73,0,0,0,0.00
2013-7-11,91.8,91.5,65.1,71.7,71.6,64.5,99,53,52,29.91,29.85,0,0,0,0.73
2013-7-12,64.8,61.4,49.3,64.5,61.2,49.0,99,99,99,29.91,29.89,122,16,0,0.00
2013-7-13,82.9,77.0,70.2,65.6,62.8,59.3,82,63,45,29.93,29.91,0,0,0,0.00
2013-7-14,87.8,81.1,76.8,72.0,70.9,69.6,85,73,55,29.95,29.95,0,0,0,0.00
2013-7-15,115.0,76.0,34.5,78.3,67.2,-16.4,99,80,10,30.05,29.98,3,0,0,0.25
2013-7-16,98.8,86.7,78.3,79.3,69.9,29.0,99,70,10,30.13,30.02,0,0,0,0.25
2013-7-21,79.2,69.5,-13.4,77.8,68.7,-13.6,99,98,92,29.70,29.67,0,0,0,0.31
2013-7-22,96.3,78.4,68.4,78.0,72.0,25.4,99,85,10,29.69,29.60,0,0,0,0.00
2013-7-23,89.6,79.4,68.7,78.1,71.5,65.0,99,79,50,29.74,29.58,0,0,0,0.00
2013-7-24,73.2,64.8,60.6,60.5,59.1,57.1,99,83,57,29.85,29.82,0,0,0,0.00
2013-7-25,86.0,69.5,54.0,65.3,58.5,53.7,99,73,38,29.95,29.85,0,0,0,0.00
2013-7-26,75.0,74.2,73.0,72.7,72.1,71.9,99,93,90,29.80,29.79,0,0,0,0.00
2013-7-27,75.0,67.0,54.0,71.9,55.3,47.6,99,70,42,29.83,29.79,0,0,1,0.38
2013-7-28,77.7,69.5,56.3,59.3,55.7,50.6,96,62,47,29.87,29.82,0,0,1,0.00
2013-8-12,63.0,63.0,63.0,62.7,62.7,62.7,99,99,99,29.79,29.74,0,0,24,680.00
2013-8-31,0.0,0.0,0.0,62.7,62.7,62.7,0,0,100,29.64,29.55,0,0,0,680.00
2013-9-1,0.0,0.0,0.0,62.7,62.7,62.7,0,0,100,29.69,29.60,0,0,0,680.00
2013-9-2,0.0,0.0,0.0,62.7,62.7,62.7,0,0,100,29.79,29.69,0,0,0,680.00
2013-11-6,0.0,0.0,0.0,62.7,62.7,62.7,0,0,100,30.07,29.96,0,0,0,680.00
2013-12-27,0.0,0.0,0.0,62.7,62.7,62.7,0,0,100,30.09,30.02,0,0,0,680.00